Vertical_Velocity
3 1 3 2 -1 -2 -3 -6 -3 -2 2 1 3 -5 1 1 2 0 -2 -0 1 -0 -0 0 -1 0 -1 0 -0 0 0 1 0 0 -1 -0 -0 0 -0 -1 -1 -1 -1 -0 0 -1 -1 -1 -1
2 3 3 1 2 -1 -4 -3 -4 -0 -1 -2 3 1 -1 0 3 -1 -2 -2 -1 -0 0 -0 -0 0 -1 -0 -0 0 -0 1 1 1 0 -0 0 -1 -0 -1 -1 -1 -1 0 0 0 -0 -0 -0
3 3 6 3 -0 -6 -3 1 -1 -0 2 -0 -0 -1 3 -3 3 1 -2 -2 -1 -1 2 -1 -0 -1 -1 -0 0 -0 -1 -1 -0 -1 0 -1 0 -0 -0 -1 -0 -1 -1 -1 -1 -1 -0 -1 -1
-0 3 9 -2 -3 -7 2 -0 -4 -2 -1 0 -2 4 -2 0 2 2 -1 -3 -2 -2 2 1 0 0 -1 -0 -0 0 -0 -2 -2 -2 0 -0 -0 -0 0 -0 -0 0 0 -0 0 -0 -1 -1 -0
1 5 5 0 -2 -9 2 0 -0 -0 -0 1 2 -2 -1 -1 0 1 -2 -1 -1 -2 1 -1 -1 -1 -0 -0 -1 -1 0 -0 -0 0 -1 -1 -1 -1 -1 -0 0 0 0 -1 -1 0 -1 5 0
-1 4 -4 -1 -4 -8 3 -0 1 0 1 1 3 -2 -2 -1 -1 3 -1 -2 -0 -1 1 1 -1 -0 -1 -1 -1 -0 1 0 -0 1 0 -0 -1 -0 0 -1 -1 0 -0 -0 -1 -1 0 1 1
-0 -6 -0 -3 -7 1 -1 -0 -2 0 3 2 3 -2 2 -2 -1 2 0 -2 1 -2 -0 0 -1 -0 0 -0 -1 -0 1 1 -0 1 -0 2 -0 -1 -0 0 -1 -1 -1 -1 -1 -1 -1 -1 -0
5 6 1 -1 -9 -6 -0 -1 1 -1 2 3 4 -1 -1 1 2 2 0 -1 1 -1 -0 -0 -0 0 -0 0 0 -1 0 -0 0 0 0 1 1 0 -0 -1 -1 -1 -1 -1 -0 -1 -1 -1 -1
-1 -2 2 -6 -4 -6 -1 -2 0 1 1 1 1 0 1 1 4 2 -1 -0 -0 -1 -1 0 0 0 0 -0 -1 -1 -2 -1 -2 -1 -1 -2 -0 -1 -2 -1 0 -1 -1 -1 -1 -0 1 0 -0
-1 2 -2 -6 0 -1 -2 -1 2 -0 -0 2 1 -2 -1 1 3 2 0 -1 -1 -0 -0 -0 -0 -0 -0 -0 -0 -0 -0 -0 -1 -1 -1 -2 -1 -0 -0 -1 -1 -2 -1 -1 -1 -1 -1 -1 1
5 1 -5 -4 -3 2 0 -1 -1 2 -0 2 4 1 -1 1 2 1 1 1 -0 -0 0 -0 0 0 -0 -0 -1 -1 -0 -0 -0 0 -0 0 -1 -1 -1 -0 -0 1 2 1 1 1 -0 -0 -2
3 0 2 -0 -3 1 2 1 -1 2 -1 1 1 1 -0 1 5 3 0 1 1 1 -0 0 1 -0 0 -0 -0 -1 0 -1 -0 -0 0 1 1 1 -0 0 1 -0 -0 -0 -1 -1 -0 -1 -1
7 -4 4 -2 -2 2 4 -1 -1 1 1 -0 2 2 -0 -0 -0 1 -1 2 0 -1 -0 1 -0 0 1 -1 -1 -2 -1 -1 -1 -1 -2 -2 -2 -2 -2 -1 -1 -1 0 1 1 1 1 1 1
5 1 2 -4 -1 2 5 -1 2 -0 2 1 1 0 0 2 -0 -1 0 -2 1 -1 -0 0 -1 0 -1 -2 -1 -2 -0 -1 -1 0 -1 -2 -1 -0 0 -1 -1 -1 -1 -1 -0 -0 1 0 1
4 -1 4 -0 2 -1 3 1 -2 -3 1 0 1 1 -1 -1 -1 1 -1 1 0 -1 -1 -2 -0 -0 -0 -1 -1 -1 -1 -1 -1 -2 -1 -1 -0 -1 -0 -1 -0 -1 -1 -1 -1 -0 -1 -1 2
4 7 -1 1 0 -0 3 -2 -1 -1 1 0 1 1 1 1 0 -1 0 0 -0 -1 -2 1 0 0 -1 -1 -1 -1 -1 -0 -0 -1 -1 -1 -0 -1 -1 -2 -2 -2 -2 0 -1 0 0 -1 0
3 -3 1 -0 -2 -1 1 -2 -2 -1 -1 1 0 -1 -1 -1 1 -1 0 -1 -1 1 1 1 0 -1 -1 -1 -1 0 -0 -1 -0 -0 -1 -2 -2 -1 -1 0 -1 -0 -1 -2 -1 -2 1 1 -1
-6 -5 2 -5 -2 1 -1 -3 -3 -1 -1 -1 0 0 -1 1 2 -1 -2 -1 1 -0 2 0 -1 -1 -0 -1 -0 1 -0 -1 -0 -1 -1 -1 -1 -2 -1 -1 -2 1 -1 -2 -2 -1 -3 1 0
0 -3 -3 -1 -1 2 -0 -1 -1 -3 1 -0 -0 -1 0 -0 -5 -2 -0 1 1 2 0 -0 1 1 -0 -1 1 -1 -0 -1 -1 0 -2 -2 -2 -2 -2 -1 -1 -2 -2 0 -1 -0 -2 -1 -1
8 2 1 -0 0 2 0 1 -2 -1 2 -0 0 1 1 2 -0 -1 0 2 2 0 1 1 -0 -1 -0 2 1 0 1 -0 -1 -2 -1 1 0 0 -1 -2 -2 -1 -1 -2 -1 1 2 -2 1
1 2 -1 -2 -1 -1 -2 -2 -1 -0 -1 -1 1 -0 1 -1 0 -1 1 1 1 1 -2 -1 -1 0 1 0 0 1 -0 -2 -1 0 -3 -3 -0 -1 -1 -2 -2 -1 -1 -1 -2 -1 0 2 -0
-0 0 -1 -1 -0 -1 -2 -4 0 0 1 -1 1 -0 -2 1 0 -1 -1 1 -0 -1 -0 0 -0 0 -0 1 0 -0 -0 -0 -0 0 0 -1 1 -2 -0 -2 -1 -1 1 1 -3 -2 -1 2 1
-4 0 -2 -0 -1 -2 -1 -2 -1 1 0 0 -1 -0 0 -0 -0 -1 -2 -3 -2 -1 0 1 1 -0 -1 -2 -1 0 0 -1 -1 -2 -1 -3 -2 -2 1 -1 -0 -1 -2 -1 -0 -1 -2 -1 -1
-1 1 -1 0 -2 -2 -2 -0 -0 1 -1 -1 0 -0 -0 -1 -0 0 0 -1 -2 -2 -0 1 -0 -1 1 1 -1 0 0 -1 -2 -3 -3 -3 -1 -2 -1 -1 -1 -2 -1 0 -1 -2 -1 0 1
2 1 -2 -5 -3 -4 -2 1 -1 0 -1 -0 0 1 0 1 -0 -1 -2 -1 -0 0 -0 -1 -1 -2 -2 -3 -3 -4 -2 -1 -1 -2 -1 -1 -2 -1 -2 0 -1 -1 -1 1 -0 -0 -1 -1 -1
-1 -1 -1 -4 -2 -3 -1 -3 -1 -0 1 1 1 1 1 0 -1 -1 -1 -1 -0 0 -0 -1 -0 -2 -2 -3 -3 -3 -1 1 1 -1 -1 -2 -1 -0 0 -1 -1 -2 -0 0 -0 -0 1 1 1
-1 -1 -1 -3 -1 -1 -0 -2 -2 -2 -1 -1 -1 -2 -2 -1 -1 -1 -2 -2 -1 -1 -1 -1 -2 -1 -0 0 1 -1 -2 -1 1 -1 -1 -1 -1 1 -1 -0 -1 -1 -1 0 0 -2 -1 -0 0
1 0 -3 -1 -3 -2 -2 -4 -4 -2 -3 -1 -0 0 -0 -0 -1 -2 -1 -1 -1 -1 -1 -1 -2 -1 -0 -1 -1 -1 -0 -2 -1 -0 -1 -1 0 0 -0 -1 -1 0 -1 -1 -1 -2 -1 -1 -2
-1 -1 -2 -0 0 -3 -1 -5 -1 -1 1 0 -0 1 1 1 -1 -1 -1 -1 -0 0 0 -2 -2 -1 -2 -1 0 -1 0 -1 -2 -1 -1 -1 1 -1 -1 -0 -1 0 -1 -0 1 1 -1 -1 -2
0 -0 -0 -1 -2 -1 -0 -17 -4 -2 -1 0 0 0 -0 -1 -1 -0 0 -0 -1 -2 -2 -0 1 -1 -1 -1 0 -1 0 1 -2 -0 -0 -1 -0 -2 -2 -2 -1 0 -1 -1 -1 0 0 1 1
Height
3152 3158 3162 3166 3173 3169 3170 3173 3174 3175 3177 3178 3179 3182 3185 3186 3186 3191 3188 3187 3188 3190 3191 3192 3193 3194 3194 3194 3193 3193 3193 3192 3192 3192 3191 3191 3190 3190 3189 3188 3188 3187 3186 3185 3184 3183 3182 3181 3181
3149 3154 3159 3162 3165 3165 3167 3171 3173 3174 3175 3177 3179 3181 3184 3186 3186 3187 3188 3189 3189 3190 3191 3192 3193 3193 3193 3193 3193 3193 3192 3192 3191 3191 3191 3190 3189 3189 3188 3187 3186 3186 3185 3184 3183 3182 3181 3180 3179
3145 3151 3156 3158 3159 3161 3165 3168 3172 3173 3174 3176 3179 3181 3183 3186 3187 3188 3189 3189 3190 3190 3191 3192 3192 3193 3193 3192 3192 3192 3192 3191 3190 3190 3189 3189 3188 3187 3186 3186 3185 3184 3184 3183 3182 3181 3180 3179 3178
3140 3147 3151 3151 3153 3160 3164 3166 3169 3173 3174 3175 3177 3180 3182 3185 3186 3188 3188 3189 3190 3191 3191 3192 3192 3192 3192 3191 3191 3191 3190 3190 3189 3188 3187 3187 3186 3185 3184 3183 3182 3182 3181 3180 3180 3179 3178 3177 3176
3135 3141 3145 3145 3151 3158 3162 3165 3168 3171 3173 3174 3176 3178 3181 3184 3186 3187 3188 3189 3190 3190 3191 3192 3192 3192 3192 3191 3190 3190 3189 3188 3187 3186 3186 3185 3184 3183 3181 3180 3180 3179 3178 3178 3177 3176 3175 3174 3173
3128 3136 3138 3139 3147 3156 3159 3163 3167 3169 3172 3173 3175 3177 3181 3183 3184 3186 3187 3188 3190 3190 3191 3192 3192 3192 3191 3190 3189 3188 3187 3187 3186 3185 3184 3183 3182 3181 3179 3178 3177 3176 3175 3174 3174 3173 3172 3171 3170
3121 3128 3133 3139 3147 3152 3157 3161 3165 3168 3170 3172 3174 3177 3180 3182 3184 3185 3186 3187 3189 3189 3190 3191 3190 3190 3189 3189 3188 3187 3186 3185 3184 3182 3182 3180 3180 3178 3177 3176 3175 3173 3172 3171 3170 3169 3168 3167 3166
3120 3128 3133 3137 3143 3150 3154 3159 3163 3166 3169 3171 3173 3176 3179 3181 3183 3184 3185 3186 3187 3189 3189 3189 3189 3188 3188 3187 3186 3185 3184 3182 3182 3181 3179 3178 3177 3176 3175 3174 3172 3171 3169 3168 3166 3165 3163 3162 3161
3115 3124 3129 3134 3141 3146 3151 3156 3160 3164 3167 3169 3172 3175 3178 3180 3181 3183 3184 3185 3186 3188 3188 3188 3187 3186 3185 3184 3183 3182 3181 3180 3180 3179 3178 3176 3175 3174 3172 3171 3169 3168 3166 3164 3162 3160 3159 3157 3156
3114 3121 3127 3135 3141 3144 3149 3154 3158 3162 3165 3167 3170 3173 3176 3178 3180 3181 3182 3184 3185 3186 3186 3186 3185 3184 3183 3182 3181 3180 3179 3178 3177 3177 3176 3174 3172 3170 3168 3166 3164 3162 3160 3158 3156 3154 3153 3152 3150
3113 3120 3127 3133 3139 3144 3147 3151 3157 3161 3163 3167 3170 3171 3173 3175 3177 3179 3180 3182 3183 3184 3184 3183 3182 3181 3180 3179 3178 3177 3177 3176 3175 3174 3172 3170 3168 3165 3163 3160 3158 3155 3154 3152 3150 3147 3146 3144 3142
3113 3119 3127 3132 3138 3143 3146 3150 3155 3159 3163 3165 3167 3168 3170 3173 3176 3177 3179 3180 3181 3181 3181 3181 3180 3179 3178 3176 3176 3175 3174 3173 3171 3170 3168 3166 3163 3160 3157 3155 3152 3150 3147 3145 3143 3141 3139 3137 3134
3115 3119 3126 3132 3137 3142 3145 3150 3155 3158 3161 3163 3164 3166 3168 3171 3173 3175 3177 3178 3178 3178 3178 3178 3177 3176 3175 3174 3173 3172 3171 3170 3168 3167 3164 3162 3159 3156 3153 3150 3147 3144 3142 3140 3137 3134 3132 3129 3128
3116 3121 3125 3131 3137 3142 3145 3149 3153 3157 3159 3161 3163 3165 3167 3169 3171 3174 3174 3175 3175 3175 3175 3175 3174 3173 3172 3171 3170 3169 3168 3166 3164 3162 3160 3158 3155 3152 3149 3146 3142 3139 3136 3133 3131 3128 3125 3122 3120
3116 3122 3125 3132 3137 3141 3145 3149 3151 3154 3157 3159 3161 3163 3166 3168 3170 3171 3172 3173 3173 3173 3173 3173 3171 3170 3169 3168 3167 3165 3164 3162 3160 3158 3155 3152 3150 3147 3144 3142 3138 3135 3131 3128 3124 3121 3118 3115 3113
3116 3122 3124 3131 3135 3140 3144 3147 3150 3152 3154 3156 3159 3161 3163 3166 3168 3169 3170 3170 3170 3170 3169 3169 3168 3166 3165 3164 3163 3162 3160 3158 3156 3153 3150 3147 3144 3142 3139 3136 3133 3129 3125 3121 3118 3114 3111 3108 3106
3115 3118 3124 3131 3135 3139 3143 3145 3148 3150 3152 3154 3156 3159 3162 3164 3166 3167 3166 3167 3167 3167 3166 3165 3163 3163 3162 3161 3159 3157 3155 3153 3151 3148 3145 3142 3140 3137 3133 3130 3127 3123 3119 3115 3112 3108 3105 3102 3101
3114 3118 3124 3130 3136 3139 3141 3144 3146 3148 3150 3152 3155 3157 3160 3161 3163 3162 3163 3163 3163 3163 3162 3161 3160 3159 3158 3156 3154 3152 3150 3148 3146 3143 3141 3138 3136 3132 3128 3124 3121 3117 3114 3110 3106 3102 3098 3096 3096
3117 3120 3125 3131 3134 3138 3140 3142 3145 3147 3149 3150 3153 3155 3156 3157 3158 3158 3158 3159 3159 3159 3158 3157 3156 3155 3153 3151 3149 3148 3146 3144 3142 3140 3138 3135 3132 3128 3124 3120 3116 3112 3108 3104 3101 3097 3093 3090 3091
3119 3122 3127 3131 3134 3137 3138 3141 3143 3145 3147 3148 3150 3151 3153 3154 3155 3155 3155 3155 3155 3154 3154 3153 3151 3150 3148 3146 3144 3143 3141 3139 3138 3136 3134 3131 3127 3123 3119 3115 3112 3108 3104 3100 3095 3092 3089 3087 3087
3120 3123 3126 3131 3133 3135 3136 3139 3140 3142 3143 3145 3147 3148 3148 3149 3150 3151 3150 3150 3150 3150 3149 3148 3146 3144 3142 3141 3139 3138 3137 3136 3134 3132 3128 3125 3122 3119 3115 3111 3108 3104 3101 3097 3093 3089 3086 3084 3083
3121 3124 3127 3130 3132 3134 3136 3137 3136 3137 3139 3141 3142 3143 3144 3145 3145 3145 3145 3145 3145 3144 3143 3141 3140 3139 3137 3136 3135 3134 3133 3132 3130 3128 3125 3120 3117 3114 3111 3107 3103 3101 3098 3096 3092 3087 3084 3082 3080
3123 3125 3128 3130 3131 3133 3135 3136 3132 3133 3134 3136 3137 3139 3140 3140 3140 3140 3140 3139 3139 3138 3138 3136 3135 3134 3133 3132 3131 3130 3129 3127 3126 3123 3120 3116 3112 3109 3106 3103 3100 3097 3095 3093 3090 3087 3084 3082 3079
3124 3126 3128 3129 3131 3132 3133 3135 3129 3130 3131 3132 3134 3135 3135 3135 3136 3135 3135 3135 3134 3134 3134 3132 3131 3130 3129 3128 3127 3126 3125 3123 3121 3118 3114 3110 3107 3104 3101 3099 3096 3094 3091 3089 3086 3084 3083 3081 3079
3124 3125 3128 3133 3134 3132 3132 3132 3126 3128 3129 3130 3131 3132 3132 3132 3132 3132 3132 3132 3131 3131 3130 3129 3128 3125 3125 3125 3124 3123 3121 3118 3116 3112 3109 3106 3102 3099 3097 3095 3092 3090 3087 3085 3083 3081 3079 3077 3076
3124 3126 3126 3134 3135 3131 3131 3125 3123 3125 3127 3128 3129 3129 3130 3130 3129 3129 3129 3128 3128 3127 3126 3126 3125 3123 3122 3121 3120 3118 3115 3112 3110 3107 3104 3101 3098 3095 3093 3090 3087 3085 3083 3081 3079 3077 3075 3073 3071
3124 3125 3128 3129 3132 3132 3126 3123 3123 3123 3125 3126 3126 3127 3126 3126 3126 3125 3124 3124 3124 3123 3123 3122 3121 3120 3119 3117 3115 3112 3109 3106 3104 3101 3099 3096 3094 3091 3089 3086 3083 3081 3078 3076 3074 3072 3070 3068 3065
3124 3126 3128 3128 3132 3132 3122 3120 3119 3121 3122 3122 3123 3123 3123 3122 3122 3121 3121 3121 3121 3120 3119 3118 3117 3115 3113 3111 3109 3106 3103 3100 3098 3096 3093 3091 3089 3087 3084 3082 3079 3076 3073 3071 3069 3066 3064 3063 3060
3124 3125 3127 3128 3127 3127 3128 3118 3119 3119 3119 3119 3120 3120 3120 3119 3119 3118 3118 3117 3116 3115 3113 3111 3109 3108 3106 3104 3102 3099 3096 3094 3092 3090 3088 3086 3084 3081 3079 3076 3073 3070 3068 3065 3063 3061 3058 3056 3054
3123 3123 3125 3126 3127 3126 3125 3117 3117 3117 3117 3117 3117 3117 3117 3116 3116 3115 3114 3113 3111 3109 3106 3103 3101 3100 3098 3097 3095 3093 3090 3088 3086 3084 3082 3079 3077 3075 3072 3069 3066 3063 3061 3058 3056 3054 3052 3049 3048